Regional Weather Roundup
Issued by NWS

Home | Current Version | Previous Version | Text Only | Print | Product List | Glossary Off
Versions: 1 2 3 4 5 6 7 8 9 10 11 12 13 14 15 16 17 18 19 20 21 22 23 24 25 26 27

000
ASUS45 KCYS 180710
RWRWY

WYOMING REGIONAL WEATHER ROUNDUP
NATIONAL WEATHER SERVICE CHEYENNE WY
1200 AM MST WED JAN 18 2017

NOTE:  "FAIR" INDICATES FEW OR NO CLOUDS BELOW 12,000 FEET
WITH NO SIGNIFICANT WEATHER AND/OR OBSTRUCTIONS TO VISIBILITY.

WYZ001-180800-
YELLOWSTONE NATIONAL PARK

CITY           SKY/WX    TMP DP  RH WIND       PRES   REMARKS
LK YELLOWSTONE   N/A     -3  -7  82 CALM      30.12F
W YELLOWSTONE  NOT AVBL

$$
WYZ002>013-054>058-071-098>099-180800-
NORTHERN WYOMING

CITY           SKY/WX    TMP DP  RH WIND       PRES   REMARKS
JACKSON        FAIR      -8  -8 100 NE6       30.17F WCI -21
CODY           FAIR      12   7  80 S7        29.92F WCI   1
GREYBULL       FAIR      -4  -9  79 SE6       29.97F WCI -16
WORLAND        FAIR       6   3  87 N3        29.95R
SHERIDAN       FAIR      18  11  74 S6        29.87F WCI  10
BUFFALO        FAIR      29  17  61 CALM      29.88F
GILLETTE       FAIR      35  18  49 SW18      29.89S WCI  24
HULETT         FAIR      30  18  59 SW7       29.88F WCI  23
NEWCASTLE      FAIR      27  14  59 E3        29.94R

$$
WYZ014>020-022>026-101>103-180800-
CENTRAL WYOMING

CITY           SKY/WX    TMP DP  RH WIND       PRES   REMARKS
BIG PINEY      FAIR     -10 -14  82 N5        30.15S WCI -22
PINEDALE       FAIR      -9 -15  77 W6        30.15R WCI -23
DUBOIS         NOT AVBL
LANDER         FAIR      11   7  84 NW5       30.02F WCI   3
RIVERTON       FAIR       1  -3  83 NW5       30.05S WCI  -9
CASPER         FAIR      29   9  43 SW20G26   29.99R WCI  16
DOUGLAS        FAIR      24  13  62 NW8       29.96F WCI  15

$$
WYZ021-027>030-104>119-180800-
SOUTHERN WYOMING

CITY           SKY/WX    TMP DP  RH WIND       PRES   REMARKS
EVANSTON       FAIR      14   5  67 S6        30.13S WCI   5
ROCK SPRINGS   FAIR      -1  -6  79 SW7       30.14S WCI -14
RAWLINS        FAIR       6   1  80 N5        30.12R WCI  -3
LARAMIE        FAIR       3   0  87 CALM      30.03F FOG
CHEYENNE       FAIR      25  10  53 W7        29.98F WCI  17
TORRINGTON     FAIR      24  14  65 NW5       29.94F WCI  18

$$




USA.gov is the U.S. government's official web portal to all federal, state and local government web resources and services.